Flag for U.S.A. Weather past 2 weeks in Honolulu, Hawaii, U.S.A.

83 °F

Scattered clouds.

Feels Like: 84 °F
Forecast: 72 / 82 °F
Wind: 12 mph from North

Location: Honolulu International Airport

Current Time: Oct 6, 2015 at 5:36:39 PM

Latest Report: Oct 6, 2015 at 4:53 PM

Visibility: 10 mi

Pressure: 29.72 "Hg

Humidity: 51%

Dew point: 63 °F

Location of HonoluluLocation

Historic Weather in Honolulu — Graph


Honolulu temperature yesterday

Maximum temperature yesterday: 85 °F (at 10:53 AM)
Minimum temperature yesterday: 77 °F (at 11:53 PM)
Average temperature yesterday: 81 °F

Past Weeks' High & Low Weather Summary

High90 °F (Sep 22, 12:53 PM)84% (Oct 2, 4:53 AM)30.01 "Hg (Oct 2, 4:53 AM)
Low73 °F (Oct 2, 4:53 AM)43% (Oct 6, 2:53 PM)29.71 "Hg (Oct 5, 1:53 PM)
Average82 °F66%29.87 "Hg
* Reported Sep 21 3:53 PM — Oct 6 3:53 PM, Honolulu, Weather by CustomWeather, © 2015

Note: Actual official high and low records may vary slightly from our data, if they occured in-between our weather recording intervals... More about our weather records


Honolulu weather history for previous 24 hours

Time TempWeatherWind HumidityBarometerVisibility
3:53 PM
Tue, Oct 6
83 °FScattered clouds.14 mph48%29.72 "Hg10 mi
2:53 PM85 °FScattered clouds.15 mph43%29.72 "Hg10 mi
1:53 PM85 °FScattered clouds.18 mph45%29.73 "Hg10 mi
12:53 PM85 °FScattered clouds.15 mph50%29.75 "Hg10 mi
11:53 AM85 °FScattered clouds.14 mph48%29.78 "Hg10 mi
10:53 AM79 °FLight rain. Broken clouds.13 mph65%29.79 "Hg9 mi
9:53 AM83 °FScattered clouds.13 mph51%29.79 "Hg10 mi
8:53 AM82 °FScattered clouds.12 mph51%29.79 "Hg10 mi
7:53 AM76 °FScattered clouds.6 mph72%29.78 "Hg10 mi
6:53 AM75 °FScattered clouds.9 mph71%29.75 "Hg10 mi
5:53 AM77 °FPassing clouds.12 mph64%29.73 "Hg10 mi
4:53 AM77 °FPassing clouds.10 mph66%29.73 "Hg10 mi
3:53 AM76 °FPassing clouds.10 mph69%29.73 "Hg10 mi
2:53 AM76 °FPassing clouds.8 mph72%29.73 "Hg10 mi
1:53 AM76 °FPassing clouds.10 mph72%29.74 "Hg10 mi
12:53 AM77 °FPassing clouds.12 mph69%29.76 "Hg10 mi
11:53 PM
Mon, Oct 5
77 °FPartly cloudy.9 mph66%29.76 "Hg10 mi
10:53 PM78 °FPartly cloudy.8 mph69%29.77 "Hg10 mi
9:53 PM78 °FPassing clouds.8 mph66%29.78 "Hg10 mi
8:53 PM78 °FPartly cloudy.7 mph66%29.78 "Hg10 mi
7:53 PM78 °FPartly cloudy.9 mph69%29.76 "Hg10 mi
6:53 PM78 °FPartly cloudy.10 mph71%29.75 "Hg10 mi
5:53 PM79 °FBroken clouds.10 mph67%29.73 "Hg10 mi
Weather by CustomWeather, © 2015

See weather overviewHow to use our weather pages